Retour au catalogue

ATLAS 5 CENTAUR R/B

ActifHEO
NORAD 39653·ROCKET BODY·🇺🇸 United States

Lancé Apr 10, 2014 depuis Cape Canaveral Space Force Station

Loading…

Prochains Passages (prochaines 24 heures)

TLE

FraisSource: Space-Track

Époque: Sep 14, 2026, 10:05 UTC

1 39653U 14020B   26257.42075931 -.00000151  00000-0  00000-0 0  9994
2 39653  10.4653 226.7281 4821894 325.8987  10.6934  1.86029366 47648

Suivez ATLAS 5 CENTAUR R/B en temps réel avec AllMySat

Download on the App Store